Regional Weather Roundup
Issued by NWS Jackson, KY

Home | Current Version | Previous Version | Text Only | Print | Product List | Glossary Off
Versions: 1 2 3 4 5 6 7 8 9 10 11 12 13 14 15 16 17 18 19 20 21 22 23 24 25 26 27 28 29 30 31 32 33 34 35 36 37 38 39 40 41 42 43 44 45 46 47 48 49 50

000
ASUS43 KJKL 202211
RWRJKL

EAST KENTUCKY HOURLY WEATHER ROUNDUP
NATIONAL WEATHER SERVICE JACKSON KY
500 PM EST SAT DEC 20 2014

NOTE: "FAIR" INDICATES FEW OR NO CLOUDS BELOW 12,000 FEET WITH
NO SIGNIFICANT WEATHER AND/OR OBSTRUCTIONS TO VISIBILITY.

* THESE REPORTS ARE NOT UNDER NWS QUALITY CONTROL AND MAY NOT
  REPORT WEATHER SUCH AS PRECIPITATION AND FOG.

KYZ079-080-083-085-087-088-110-112-115-119-120-202300
...EASTERN KENTUCKY...

CITY           SKY/WX    TMP DP  RH WIND       PRES   REMARKS
JACKSON        CLOUDY    37  25  61 CALM      30.21R
LONDON         CLOUDY    40  26  57 CALM      30.22R
SOMERSET*      MOCLDY    37  27  65 CALM      30.25R
MONTICELLO*    MOCLDY    41  27  57 NW5       30.26R
MIDDLESBORO*   CLOUDY    42  29  61 N3        30.21R
HARLAN APT*    CLOUDY    41  28  60 N7        30.19R
HAZARD APT*    CLOUDY    37  27  65 CALM      30.22
BLACK MTN*       N/A     30  30 100 N1          N/A
PIKEVILLE APT* CLOUDY    36  27  69 N3        30.21
BIG SANDY*     CLOUDY    36  27  70 CALM      30.22R
MOREHEAD APT*  CLOUDY    34  27  75 CALM      30.26R
$$

KYZ035-036-041-042-044-050-067-078-099-202300
...CENTRAL KENTUCKY...

CITY           SKY/WX    TMP DP  RH WIND       PRES   REMARKS
MT STERLING*   CLOUDY    34  28  80 CALM      30.25S
FLEMING/MASON* CLOUDY    32  27  80 CALM      30.27R
DANVILLE*      CLEAR     34  28  80 N5        30.25R WCI  30
RICHMOND*      PTCLDY    36  25  64 CALM      30.24R
LEXINGTON      CLOUDY    34  26  72 N3        30.25R
FRANKFORT      CLOUDY    35  25  66 CALM      30.25R
$$

KYZ091>093-OHZ055-061-077-WVZ005-015-034-035-042-202300
...SOUTHERN OHIO/WEST VIRGINIA...

CITY           SKY/WX    TMP DP  RH WIND       PRES   REMARKS
COVINGTON      CLOUDY    32  24  72 NW5       30.26R WCI  27
COLUMBUS       CLOUDY    31  23  72 CALM      30.26R
DAYTON         CLOUDY    31  22  69 CALM      30.26R
WILMINGTON     CLOUDY    30  23  75 N3        30.25R HAZE
HUNTINGTON     CLOUDY    34  25  69 NW5       30.24R WCI  30
CHARLESTON     CLOUDY    35  24  64 CALM      30.22S
PINEVILLE*     CLOUDY    37  34  87 MISG      30.23R
BECKLEY        CLOUDY    35  29  78 CALM      30.15R
BLUEFIELD      CLOUDY    35  32  88 W3        30.14R FOG
$$

VAZ002-007-008-TNZ017-027-036-066-071-202300
...SOUTHWEST VIRGINIA/EAST TENNESSEE...

CITY           SKY/WX    TMP DP  RH WIND       PRES   REMARKS
WISE*          CLOUDY    36  30  80 NE3       30.16R
JONESVILLE*    CLOUDY    41  32  70 W5        30.21R
ABINGDON*      CLOUDY    40  37  89 CALM      30.17R
BRISTOL        CLOUDY    42  37  82 CALM      30.18S
KNOXVILLE      CLOUDY    42  34  73 E3        30.20S
OAK RIDGE      CLOUDY    46  33  60 E3        30.21R
CROSSVILLE     CLOUDY    45  26  47 N7        30.18R
NASHVILLE      MOCLDY    45  28  51 N6        30.24R
$$

...KEY TO REMARKS...
VSB - VISIBILITY IN MILES
WCI - WIND CHILL INDEX
HX  - HEAT INDEX

$$


USA.gov is the U.S. government's official web portal to all federal, state and local government web resources and services.